DataTemp.
Ø
Temp.
Max
Temp.
Min
UmiditàPressionePioggiaVento
Ø
Vento
dir. Ø
Vento
Max
Rad. solare
Ø
Rad. solare
Max
30.08.2026 00:0020.9°C21.0°C20.8°C68.0%1013.7hPa0.0mm4.7km/hS7.9km/h0.0W/m²0W/m²
30.08.2026 00:0520.8°C20.9°C20.8°C68.0%1013.7hPa0.0mm4.7km/hSSW7.9km/h0.0W/m²0W/m²
30.08.2026 00:1020.7°C20.8°C20.7°C68.5%1013.7hPa0.0mm3.9km/hS9.7km/h0.0W/m²0W/m²
30.08.2026 00:1520.6°C20.7°C20.6°C69.0%1013.9hPa0.0mm4.2km/hSSW11.2km/h0.0W/m²0W/m²
30.08.2026 00:2020.6°C20.6°C20.5°C69.0%1013.8hPa0.0mm5.2km/hSSW13.0km/h0.0W/m²0W/m²
30.08.2026 00:2520.6°C20.6°C20.5°C69.0%1013.9hPa0.0mm6.5km/hSSW9.7km/h0.0W/m²0W/m²
30.08.2026 00:3020.6°C20.6°C20.5°C69.0%1013.9hPa0.0mm6.5km/hS14.4km/h0.0W/m²0W/m²
30.08.2026 00:3520.5°C20.5°C20.4°C69.0%1013.9hPa0.0mm5.3km/hS9.7km/h0.0W/m²0W/m²
30.08.2026 00:4020.4°C20.4°C20.3°C69.7%1013.9hPa0.0mm4.7km/hS9.7km/h0.0W/m²0W/m²
30.08.2026 00:4520.3°C20.3°C20.3°C70.4%1013.9hPa0.0mm4.7km/hS11.2km/h0.0W/m²0W/m²
30.08.2026 00:5020.3°C20.3°C20.3°C71.0%1014.0hPa0.0mm4.7km/hSSW9.7km/h0.0W/m²0W/m²
30.08.2026 00:5520.3°C20.3°C20.3°C71.0%1014.1hPa0.0mm5.6km/hSSW13.0km/h0.0W/m²0W/m²
30.08.2026 01:0020.3°C20.3°C20.2°C70.1%1014.1hPa0.0mm6.5km/hS11.2km/h0.0W/m²0W/m²
30.08.2026 01:0520.2°C20.2°C20.1°C70.7%1014.2hPa0.0mm6.5km/hS9.7km/h0.0W/m²0W/m²
30.08.2026 01:1020.1°C20.1°C20.1°C71.0%1014.3hPa0.0mm4.9km/hS7.9km/h0.0W/m²0W/m²
30.08.2026 01:1520.1°C20.1°C20.0°C71.2%1014.3hPa0.0mm4.7km/hSSW7.9km/h0.0W/m²0W/m²
30.08.2026 01:2020.0°C20.1°C19.9°C72.0%1014.4hPa0.0mm4.0km/hS7.9km/h0.0W/m²0W/m²
30.08.2026 01:2519.9°C19.9°C19.8°C72.0%1014.4hPa0.0mm3.2km/hS7.9km/h0.0W/m²0W/m²
30.08.2026 01:3020.0°C20.1°C19.9°C72.0%1014.4hPa0.0mm3.9km/hSSW11.2km/h0.0W/m²0W/m²
30.08.2026 01:3520.1°C20.2°C20.1°C71.2%1014.4hPa0.0mm5.5km/hSSW11.2km/h0.0W/m²0W/m²
30.08.2026 01:4020.1°C20.2°C20.1°C71.7%1014.5hPa0.0mm6.4km/hS13.0km/h0.0W/m²0W/m²
30.08.2026 01:4520.1°C20.2°C20.1°C72.0%1014.5hPa0.0mm4.7km/hS6.5km/h0.0W/m²0W/m²
30.08.2026 01:5020.1°C20.1°C20.1°C72.8%1014.5hPa0.0mm3.4km/hS7.9km/h0.0W/m²0W/m²
30.08.2026 01:5520.1°C20.1°C20.0°C73.0%1014.6hPa0.0mm4.5km/hSSW7.9km/h0.0W/m²0W/m²
30.08.2026 02:0019.9°C20.0°C19.9°C73.0%1014.6hPa0.0mm4.3km/hSE6.5km/h0.0W/m²0W/m²
30.08.2026 02:0519.8°C19.9°C19.7°C73.1%1014.6hPa0.0mm3.2km/hSE7.9km/h0.0W/m²0W/m²
30.08.2026 02:1019.6°C19.7°C19.6°C74.0%1014.6hPa0.0mm3.2km/hSSW9.7km/h0.0W/m²0W/m²
30.08.2026 02:1519.6°C19.6°C19.6°C74.0%1014.6hPa0.0mm4.5km/hSSW9.7km/h0.0W/m²0W/m²
30.08.2026 02:2019.7°C19.7°C19.6°C74.0%1014.6hPa0.0mm6.3km/hS9.7km/h0.0W/m²0W/m²
30.08.2026 02:2519.6°C19.7°C19.6°C74.0%1014.6hPa0.0mm4.9km/hSSW9.7km/h0.0W/m²0W/m²
30.08.2026 02:3019.5°C19.6°C19.4°C74.0%1014.6hPa0.0mm4.7km/hS11.2km/h0.0W/m²0W/m²
30.08.2026 02:3519.4°C19.5°C19.4°C74.0%1014.5hPa0.0mm4.7km/hS9.7km/h0.0W/m²0W/m²
30.08.2026 02:4019.4°C19.4°C19.4°C74.0%1014.6hPa0.0mm4.7km/hSSW11.2km/h0.0W/m²0W/m²
30.08.2026 02:4519.4°C19.4°C19.4°C74.1%1014.6hPa0.0mm4.1km/hSSE4.7km/h0.0W/m²0W/m²
30.08.2026 02:5019.3°C19.4°C19.3°C74.4%1014.6hPa0.0mm2.8km/hS7.9km/h0.0W/m²0W/m²
30.08.2026 02:5519.3°C19.3°C19.3°C75.0%1014.7hPa0.0mm1.4km/hSSE7.9km/h0.0W/m²0W/m²
30.08.2026 03:0019.3°C19.3°C19.2°C75.0%1014.6hPa0.0mm3.0km/hSSW11.2km/h0.0W/m²0W/m²
30.08.2026 03:0519.3°C19.3°C19.3°C75.0%1014.7hPa0.0mm3.2km/hSSW6.5km/h0.0W/m²0W/m²
30.08.2026 03:1019.2°C19.3°C19.2°C75.0%1014.7hPa0.0mm3.2km/hSE6.5km/h0.0W/m²0W/m²
30.08.2026 03:1519.2°C19.2°C19.2°C75.3%1014.6hPa0.0mm3.1km/hS6.5km/h0.0W/m²0W/m²
30.08.2026 03:2019.2°C19.2°C19.2°C75.5%1014.7hPa0.0mm1.9km/hESE6.5km/h0.0W/m²0W/m²
30.08.2026 03:2519.2°C19.2°C19.1°C75.3%1014.7hPa0.0mm1.4km/hSE3.2km/h0.0W/m²0W/m²
30.08.2026 03:3019.1°C19.1°C19.1°C76.0%1014.7hPa0.0mm1.4km/hSE7.9km/h0.0W/m²0W/m²
30.08.2026 03:3519.1°C19.1°C19.1°C76.0%1014.6hPa0.0mm3.0km/hS6.5km/h0.0W/m²0W/m²
30.08.2026 03:4019.1°C19.1°C19.1°C76.0%1014.7hPa0.0mm3.2km/hSSW7.9km/h0.0W/m²0W/m²
30.08.2026 03:4519.1°C19.1°C19.1°C76.0%1014.6hPa0.0mm2.0km/hSSE4.7km/h0.0W/m²0W/m²
30.08.2026 03:5018.9°C19.0°C18.9°C76.0%1014.6hPa0.0mm1.4km/hSE6.5km/h0.0W/m²0W/m²
30.08.2026 03:5518.9°C18.9°C18.9°C76.0%1014.6hPa0.0mm1.4km/hSE7.9km/h0.0W/m²0W/m²
30.08.2026 04:0018.9°C18.9°C18.8°C76.0%1014.6hPa0.0mm2.2km/hSE6.5km/h0.0W/m²0W/m²
30.08.2026 04:0518.9°C18.9°C18.8°C75.5%1014.6hPa0.0mm3.2km/hSSW7.9km/h0.0W/m²0W/m²
30.08.2026 04:1019.0°C19.1°C18.9°C75.0%1014.5hPa0.0mm3.2km/hS6.5km/h0.0W/m²0W/m²
30.08.2026 04:1519.1°C19.1°C19.1°C74.7%1014.5hPa0.0mm3.2km/hS7.9km/h0.0W/m²0W/m²
30.08.2026 04:2019.1°C19.1°C19.0°C74.9%1014.5hPa0.0mm3.1km/hSSW3.2km/h0.0W/m²0W/m²
30.08.2026 04:2519.0°C19.1°C18.9°C75.0%1014.5hPa0.0mm1.4km/hSE4.7km/h0.0W/m²0W/m²
30.08.2026 04:3018.9°C18.9°C18.8°C75.0%1014.5hPa0.0mm1.4km/hS4.7km/h0.0W/m²0W/m²
30.08.2026 04:3518.8°C18.8°C18.8°C75.4%1014.5hPa0.0mm1.4km/hS3.2km/h0.0W/m²0W/m²
30.08.2026 04:4018.7°C18.8°C18.7°C76.0%1014.5hPa0.0mm1.4km/hSE4.7km/h0.0W/m²0W/m²
30.08.2026 04:4518.6°C18.6°C18.6°C76.0%1014.4hPa0.0mm1.4km/hSE3.2km/h0.0W/m²0W/m²
30.08.2026 04:5018.6°C18.6°C18.5°C76.0%1014.4hPa0.0mm1.4km/hSE7.9km/h0.0W/m²0W/m²
30.08.2026 04:5518.5°C18.6°C18.5°C76.0%1014.5hPa0.0mm1.4km/hESE6.5km/h0.0W/m²0W/m²
30.08.2026 05:0018.4°C18.5°C18.4°C76.0%1014.5hPa0.0mm1.4km/hE3.2km/h0.0W/m²0W/m²
30.08.2026 05:0518.4°C18.4°C18.3°C76.9%1014.5hPa0.0mm1.4km/hSE6.5km/h0.0W/m²0W/m²
30.08.2026 05:1018.3°C18.4°C18.3°C77.0%1014.5hPa0.0mm1.4km/hSSE4.7km/h0.0W/m²0W/m²
30.08.2026 05:1518.3°C18.3°C18.2°C77.0%1014.5hPa0.0mm1.4km/hSE4.7km/h0.0W/m²0W/m²
30.08.2026 05:2018.2°C18.3°C18.2°C77.0%1014.5hPa0.0mm1.4km/hSE3.2km/h0.0W/m²0W/m²
30.08.2026 05:2518.2°C18.2°C18.2°C77.0%1014.5hPa0.0mm1.4km/hSSE3.2km/h0.0W/m²0W/m²
30.08.2026 05:3018.1°C18.2°C18.1°C77.0%1014.6hPa0.0mm1.4km/hS4.7km/h0.0W/m²0W/m²
30.08.2026 05:3518.1°C18.1°C18.1°C77.0%1014.5hPa0.0mm1.4km/hS7.9km/h0.0W/m²0W/m²
30.08.2026 05:4018.1°C18.2°C18.1°C77.4%1014.6hPa0.0mm1.4km/hS6.5km/h0.0W/m²0W/m²
30.08.2026 05:4518.2°C18.2°C18.2°C78.0%1014.6hPa0.0mm1.4km/hSSW3.2km/h0.0W/m²0W/m²
30.08.2026 05:5018.2°C18.2°C18.2°C78.8%1014.6hPa0.0mm1.4km/hWSW3.2km/h0.0W/m²0W/m²
30.08.2026 05:5518.1°C18.2°C18.1°C79.3%1014.6hPa0.0mm1.4km/hSW3.2km/h0.0W/m²0W/m²
30.08.2026 06:0018.0°C18.1°C17.9°C80.0%1014.6hPa0.0mm0.4km/hSW1.4km/h0.0W/m²0W/m²
30.08.2026 06:0517.9°C17.9°C17.8°C80.6%1014.6hPa0.0mm0.0km/hSW3.2km/h0.0W/m²0W/m²
30.08.2026 06:1017.8°C17.8°C17.8°C81.0%1014.7hPa0.0mm0.0km/hSW3.2km/h0.0W/m²0W/m²
30.08.2026 06:1517.7°C17.8°C17.7°C81.1%1014.8hPa0.0mm0.4km/hWSW3.2km/h0.0W/m²0W/m²
30.08.2026 06:2017.6°C17.6°C17.5°C82.0%1014.8hPa0.0mm1.4km/hW3.2km/h0.0W/m²0W/m²
30.08.2026 06:2517.4°C17.5°C17.4°C82.7%1014.8hPa0.0mm1.4km/hW3.2km/h0.0W/m²0W/m²
30.08.2026 06:3017.3°C17.4°C17.3°C83.0%1014.8hPa0.0mm1.4km/hSW3.2km/h0.0W/m²0W/m²
30.08.2026 06:3517.2°C17.3°C17.2°C83.6%1014.9hPa0.0mm1.4km/hS3.2km/h4.2W/m²5W/m²
30.08.2026 06:4017.2°C17.2°C17.2°C84.0%1014.9hPa0.0mm1.4km/hWSW3.2km/h7.0W/m²9W/m²
30.08.2026 06:4517.1°C17.2°C17.1°C84.0%1014.9hPa0.0mm1.4km/hWSW3.2km/h9.4W/m²11W/m²
30.08.2026 06:5017.1°C17.1°C17.1°C84.0%1014.9hPa0.0mm0.4km/hSSW1.4km/h11.5W/m²12W/m²
30.08.2026 06:5517.1°C17.1°C17.1°C84.0%1014.9hPa0.0mm0.0km/hSW1.4km/h13.3W/m²14W/m²
30.08.2026 07:0017.1°C17.1°C17.1°C84.0%1015.0hPa0.0mm0.0km/hSW1.4km/h16.3W/m²18W/m²
30.08.2026 07:0517.1°C17.2°C17.1°C84.0%1015.0hPa0.0mm0.5km/hSW3.2km/h18.3W/m²19W/m²
30.08.2026 07:1017.2°C17.2°C17.1°C84.0%1015.0hPa0.0mm1.4km/hSSW3.2km/h20.0W/m²21W/m²
30.08.2026 07:1517.1°C17.2°C17.1°C83.7%1015.0hPa0.0mm1.3km/hSSW3.2km/h23.4W/m²25W/m²
30.08.2026 07:2017.1°C17.2°C17.1°C83.0%1015.1hPa0.0mm0.0km/hSSW1.4km/h25.7W/m²26W/m²
30.08.2026 07:2517.2°C17.3°C17.2°C83.0%1015.1hPa0.0mm0.0km/hSSW1.4km/h27.7W/m²28W/m²
30.08.2026 07:3017.4°C17.4°C17.3°C83.0%1015.2hPa0.0mm0.7km/hSSW4.7km/h30.3W/m²32W/m²
30.08.2026 07:3517.5°C17.6°C17.4°C83.0%1015.2hPa0.0mm1.4km/hSSW1.4km/h32.2W/m²33W/m²
30.08.2026 07:4017.6°C17.7°C17.6°C83.0%1015.3hPa0.0mm1.4km/hSSW3.2km/h33.0W/m²33W/m²
30.08.2026 07:4517.8°C17.8°C17.7°C83.0%1015.3hPa0.0mm1.4km/hWSW4.7km/h34.7W/m²35W/m²
30.08.2026 07:5017.9°C17.9°C17.8°C83.0%1015.3hPa0.0mm1.4km/hWSW3.2km/h36.7W/m²37W/m²
30.08.2026 07:5518.1°C18.1°C18.0°C82.8%1015.4hPa0.0mm1.4km/hW4.7km/h38.7W/m²39W/m²
30.08.2026 08:0018.1°C18.1°C18.1°C83.0%1015.4hPa0.0mm1.8km/hW4.7km/h39.8W/m²40W/m²
30.08.2026 08:0518.1°C18.2°C18.1°C83.0%1015.4hPa0.0mm1.4km/hW4.7km/h42.3W/m²44W/m²
30.08.2026 08:1018.3°C18.4°C18.2°C82.8%1015.4hPa0.0mm1.4km/hW4.7km/h44.3W/m²46W/m²
30.08.2026 08:1518.4°C18.5°C18.4°C82.0%1015.4hPa0.0mm1.4km/hWSW4.7km/h46.3W/m²47W/m²
30.08.2026 08:2018.6°C18.6°C18.5°C81.5%1015.4hPa0.0mm2.3km/hWSW4.7km/h47.4W/m²49W/m²
30.08.2026 08:2518.8°C18.8°C18.7°C81.0%1015.3hPa0.0mm2.1km/hW3.2km/h50.0W/m²51W/m²
30.08.2026 08:3018.9°C19.0°C18.8°C80.0%1015.3hPa0.0mm1.4km/hW3.2km/h151.5W/m²253W/m²
30.08.2026 08:3519.2°C19.3°C19.1°C80.0%1015.3hPa0.0mm1.4km/hW3.2km/h261.0W/m²267W/m²
30.08.2026 08:4019.4°C19.6°C19.3°C79.5%1015.3hPa0.0mm1.4km/hW3.2km/h276.2W/m²283W/m²
30.08.2026 08:4519.7°C19.8°C19.6°C78.0%1015.2hPa0.0mm1.4km/hW4.7km/h291.5W/m²297W/m²
30.08.2026 08:5020.0°C20.2°C19.8°C77.2%1015.3hPa0.0mm1.4km/hW3.2km/h306.5W/m²313W/m²
30.08.2026 08:5520.4°C20.5°C20.2°C75.7%1015.3hPa0.0mm0.7km/hSW3.2km/h321.5W/m²327W/m²
30.08.2026 09:0020.7°C20.8°C20.5°C75.0%1015.3hPa0.0mm0.5km/hWNW1.4km/h334.2W/m²339W/m²
30.08.2026 09:0521.0°C21.2°C20.8°C73.4%1015.2hPa0.0mm0.0km/hW3.2km/h347.8W/m²353W/m²
30.08.2026 09:1021.3°C21.4°C21.2°C71.8%1015.2hPa0.0mm0.0km/hW3.2km/h362.2W/m²367W/m²
30.08.2026 09:1521.6°C21.7°C21.4°C71.6%1015.2hPa0.0mm0.7km/hNNE3.2km/h375.5W/m²381W/m²
30.08.2026 09:2021.9°C22.1°C21.8°C70.2%1015.1hPa0.0mm1.4km/hNE4.7km/h389.2W/m²396W/m²
30.08.2026 09:2522.2°C22.4°C22.0°C69.7%1015.2hPa0.0mm0.8km/hNE3.2km/h404.3W/m²411W/m²
30.08.2026 09:3022.6°C22.8°C22.4°C67.8%1015.2hPa0.0mm0.9km/hE3.2km/h418.8W/m²425W/m²
30.08.2026 09:3522.9°C23.0°C22.8°C66.2%1015.2hPa0.0mm1.4km/hE3.2km/h428.8W/m²432W/m²
30.08.2026 09:4022.9°C23.0°C22.8°C65.8%1015.2hPa0.0mm1.4km/hSE4.7km/h440.8W/m²446W/m²
30.08.2026 09:4522.7°C22.8°C22.6°C66.5%1015.2hPa0.0mm1.4km/hSSE3.2km/h456.0W/m²461W/m²
30.08.2026 09:5022.8°C23.0°C22.7°C66.0%1015.2hPa0.0mm1.4km/hESE4.7km/h466.3W/m²471W/m²
30.08.2026 09:5522.9°C23.0°C22.8°C65.1%1015.2hPa0.0mm1.4km/hSE4.7km/h476.7W/m²480W/m²
30.08.2026 10:0023.1°C23.3°C22.9°C65.3%1015.2hPa0.0mm1.4km/hESE4.7km/h487.5W/m²494W/m²
30.08.2026 10:0523.2°C23.3°C23.2°C65.0%1015.2hPa0.0mm1.4km/hESE4.7km/h500.0W/m²504W/m²
30.08.2026 10:1023.4°C23.5°C23.2°C65.7%1015.2hPa0.0mm1.4km/hESE4.7km/h510.4W/m²515W/m²
30.08.2026 10:1523.7°C23.8°C23.4°C64.7%1015.2hPa0.0mm1.4km/hNNE3.2km/h522.7W/m²529W/m²
30.08.2026 10:2023.8°C23.9°C23.8°C63.5%1015.2hPa0.0mm1.4km/hSE3.2km/h533.8W/m²540W/m²
30.08.2026 10:2524.1°C24.4°C23.8°C63.2%1015.2hPa0.0mm1.4km/hNNE4.7km/h547.5W/m²552W/m²
30.08.2026 10:3024.5°C24.8°C24.3°C62.1%1015.2hPa0.0mm1.4km/hESE6.5km/h557.8W/m²563W/m²
30.08.2026 10:3524.5°C24.7°C24.4°C61.2%1015.2hPa0.0mm1.4km/hESE4.7km/h570.2W/m²573W/m²
30.08.2026 10:4024.7°C24.8°C24.6°C61.7%1015.1hPa0.0mm1.4km/hSSE4.7km/h578.7W/m²584W/m²
30.08.2026 10:4524.8°C24.9°C24.7°C61.8%1015.2hPa0.0mm1.4km/hESE4.7km/h586.8W/m²589W/m²
30.08.2026 10:5025.1°C25.4°C24.8°C60.6%1015.1hPa0.0mm1.4km/hS4.7km/h593.7W/m²596W/m²
30.08.2026 10:5525.4°C25.7°C25.2°C60.6%1015.1hPa0.0mm1.4km/hSW4.7km/h602.0W/m²606W/m²
30.08.2026 11:0025.6°C25.8°C25.5°C58.9%1015.1hPa0.0mm1.4km/hE4.7km/h608.3W/m²615W/m²
30.08.2026 11:0525.6°C25.7°C25.4°C58.3%1015.0hPa0.0mm1.4km/hSE7.9km/h620.2W/m²624W/m²
30.08.2026 11:1025.4°C25.4°C25.3°C58.1%1014.9hPa0.0mm2.8km/hS4.7km/h629.2W/m²635W/m²
30.08.2026 11:1525.8°C26.0°C25.5°C57.3%1014.8hPa0.0mm1.4km/hSE6.5km/h639.2W/m²643W/m²
30.08.2026 11:2026.1°C26.2°C25.9°C55.3%1014.8hPa0.0mm1.4km/hSE4.7km/h648.4W/m²650W/m²
30.08.2026 11:2526.1°C26.3°C25.9°C54.1%1014.7hPa0.0mm1.4km/hSSE4.7km/h655.8W/m²661W/m²
30.08.2026 11:3026.3°C26.6°C25.9°C56.3%1014.7hPa0.0mm1.4km/hS4.7km/h664.8W/m²666W/m²
30.08.2026 11:3526.8°C26.9°C26.6°C54.2%1014.6hPa0.0mm1.4km/hSSE4.7km/h672.8W/m²677W/m²
30.08.2026 11:4026.8°C26.9°C26.7°C53.6%1014.7hPa0.0mm1.4km/hNNE6.5km/h678.0W/m²682W/m²
30.08.2026 11:4527.2°C27.3°C26.9°C54.1%1014.6hPa0.0mm1.4km/hENE6.5km/h680.6W/m²684W/m²
30.08.2026 11:5027.2°C27.3°C27.1°C53.7%1014.5hPa0.0mm1.4km/hNNE6.5km/h686.7W/m²691W/m²
30.08.2026 11:5527.3°C27.5°C27.1°C55.0%1014.5hPa0.0mm1.4km/hNNE6.5km/h696.3W/m²701W/m²
30.08.2026 12:0027.5°C27.6°C27.3°C53.7%1014.4hPa0.0mm3.0km/hNNE7.9km/h702.2W/m²705W/m²
30.08.2026 12:0527.2°C27.3°C27.2°C53.5%1014.3hPa0.0mm3.2km/hNE7.9km/h709.5W/m²712W/m²
30.08.2026 12:1027.6°C27.8°C27.3°C54.2%1014.2hPa0.0mm3.2km/hE3.2km/h719.8W/m²726W/m²
30.08.2026 12:1528.0°C28.1°C27.8°C53.4%1014.1hPa0.0mm1.7km/hNE7.9km/h721.0W/m²733W/m²
30.08.2026 12:2027.9°C28.1°C27.6°C53.5%1014.1hPa0.0mm1.6km/hNNE7.9km/h730.8W/m²733W/m²
30.08.2026 12:2527.5°C27.8°C27.4°C52.8%1014.1hPa0.0mm2.7km/hE6.5km/h729.2W/m²733W/m²
30.08.2026 12:3028.1°C28.3°C27.9°C53.3%1013.9hPa0.0mm1.4km/hESE4.7km/h729.3W/m²731W/m²
30.08.2026 12:3528.7°C28.9°C28.4°C51.3%1013.7hPa0.0mm1.4km/hNE6.5km/h729.5W/m²731W/m²
30.08.2026 12:4028.8°C28.9°C28.6°C48.5%1013.6hPa0.0mm1.4km/hNNE7.9km/h733.7W/m²735W/m²
30.08.2026 12:4528.6°C28.8°C28.3°C49.9%1013.6hPa0.0mm1.4km/hSSE7.9km/h733.7W/m²740W/m²
30.08.2026 12:5028.7°C28.8°C28.6°C49.9%1013.6hPa0.0mm1.8km/hESE6.5km/h740.2W/m²744W/m²
30.08.2026 12:5528.9°C29.2°C28.8°C50.2%1013.6hPa0.0mm2.6km/hNE6.5km/h751.2W/m²766W/m²
30.08.2026 13:0029.0°C29.3°C28.7°C48.8%1013.6hPa0.0mm1.6km/hN4.7km/h697.7W/m²766W/m²
30.08.2026 13:0528.6°C28.9°C28.5°C49.7%1013.5hPa0.0mm2.1km/hN7.9km/h696.2W/m²779W/m²
30.08.2026 13:1029.2°C29.3°C29.0°C50.0%1013.3hPa0.0mm3.0km/hESE9.7km/h670.2W/m²777W/m²
30.08.2026 13:1529.1°C29.2°C29.1°C50.6%1013.2hPa0.0mm3.2km/hESE3.2km/h743.3W/m²765W/m²
30.08.2026 13:2029.5°C29.7°C29.1°C49.8%1013.3hPa0.0mm1.7km/hN4.7km/h758.0W/m²775W/m²
30.08.2026 13:2529.2°C29.6°C28.9°C48.2%1013.3hPa0.0mm1.4km/hNNE6.5km/h155.6W/m²165W/m²
30.08.2026 13:3028.9°C29.0°C28.8°C48.2%1013.2hPa0.0mm3.0km/hENE3.2km/h468.5W/m²772W/m²
30.08.2026 13:3529.3°C29.7°C28.9°C44.5%1013.1hPa0.0mm1.7km/hNE6.5km/h784.5W/m²791W/m²
30.08.2026 13:4029.5°C29.7°C29.4°C43.5%1013.1hPa0.0mm1.4km/hNNE4.7km/h784.0W/m²784W/m²
30.08.2026 13:4529.6°C29.8°C29.5°C44.9%1013.2hPa0.0mm1.4km/hSSE6.5km/h497.5W/m²784W/m²
30.08.2026 13:5029.7°C29.8°C29.6°C43.3%1013.2hPa0.0mm1.4km/hNNW4.7km/h354.0W/m²522W/m²
30.08.2026 13:5529.5°C29.8°C29.2°C44.8%1013.1hPa0.0mm1.9km/hS7.9km/h368.5W/m²468W/m²
30.08.2026 14:0029.1°C29.2°C29.1°C45.7%1013.2hPa0.0mm3.2km/hSE7.9km/h275.8W/m²334W/m²
30.08.2026 14:0528.8°C29.0°C28.6°C47.9%1013.2hPa0.0mm3.2km/hSE6.5km/h222.8W/m²278W/m²
30.08.2026 14:1028.7°C28.9°C28.6°C49.3%1013.1hPa0.0mm3.2km/hSSW7.9km/h455.6W/m²765W/m²
30.08.2026 14:1529.0°C29.2°C28.9°C48.6%1013.1hPa0.0mm3.2km/hSSW7.9km/h662.8W/m²788W/m²
30.08.2026 14:2029.4°C29.6°C29.2°C46.6%1013.0hPa0.0mm3.9km/hSSW7.9km/h726.0W/m²761W/m²
30.08.2026 14:2529.8°C30.1°C29.7°C46.1%1012.9hPa0.0mm3.4km/hSSW7.9km/h549.8W/m²744W/m²
30.08.2026 14:3030.3°C30.4°C30.1°C45.1%1013.0hPa0.0mm3.2km/hSSE6.5km/h713.3W/m²719W/m²
30.08.2026 14:3530.4°C30.6°C30.3°C44.0%1012.9hPa0.0mm3.2km/hNNE4.7km/h705.7W/m²708W/m²
30.08.2026 14:4030.7°C30.9°C30.4°C43.2%1012.8hPa0.0mm1.6km/hNNE6.5km/h706.2W/m²715W/m²
30.08.2026 14:4530.9°C31.1°C30.8°C43.2%1012.8hPa0.0mm2.3km/hN4.7km/h688.4W/m²710W/m²
30.08.2026 14:5031.1°C31.3°C31.0°C42.9%1012.7hPa0.0mm1.6km/hESE6.5km/h674.7W/m²694W/m²
30.08.2026 14:5531.2°C31.3°C31.2°C42.1%1012.7hPa0.0mm1.6km/hNNE6.5km/h687.2W/m²698W/m²
30.08.2026 15:0031.0°C31.2°C30.9°C41.3%1012.6hPa0.0mm3.2km/hNNE7.9km/h677.7W/m²696W/m²
30.08.2026 15:0531.1°C31.3°C30.9°C41.9%1012.6hPa0.0mm3.2km/hNNE9.7km/h690.0W/m²701W/m²
30.08.2026 15:1031.4°C31.6°C31.3°C40.4%1012.5hPa0.0mm3.2km/hNE13.0km/h684.3W/m²696W/m²
30.08.2026 15:1531.4°C31.6°C31.3°C41.9%1012.5hPa0.0mm3.2km/hNNE6.5km/h681.6W/m²701W/m²
30.08.2026 15:2031.6°C31.7°C31.4°C41.1%1012.4hPa0.0mm3.2km/hNNE7.9km/h657.2W/m²703W/m²
30.08.2026 15:2531.2°C31.3°C31.2°C42.2%1012.4hPa0.0mm3.4km/hNNE13.0km/h652.2W/m²663W/m²
30.08.2026 15:3031.2°C31.4°C31.1°C43.1%1012.3hPa0.0mm3.7km/hN13.0km/h639.3W/m²642W/m²
30.08.2026 15:3531.2°C31.3°C31.1°C41.8%1012.3hPa0.0mm3.2km/hNNE7.9km/h632.3W/m²640W/m²
30.08.2026 15:4031.3°C31.3°C31.2°C42.4%1012.3hPa0.0mm2.8km/hNE7.9km/h610.7W/m²621W/m²
30.08.2026 15:4531.2°C31.3°C31.1°C43.3%1012.2hPa0.0mm3.2km/hNNE13.0km/h594.3W/m²598W/m²
30.08.2026 15:5031.4°C31.6°C31.3°C43.7%1012.2hPa0.0mm3.2km/hNNE11.2km/h581.6W/m²585W/m²
30.08.2026 15:5531.4°C31.4°C31.3°C43.0%1012.1hPa0.0mm3.2km/hE9.7km/h571.0W/m²573W/m²
30.08.2026 16:0031.6°C31.6°C31.5°C43.1%1012.0hPa0.0mm3.2km/hNNE7.9km/h563.2W/m²568W/m²
30.08.2026 16:0531.4°C31.6°C31.2°C43.1%1011.9hPa0.0mm3.9km/hNE16.2km/h555.7W/m²557W/m²
30.08.2026 16:1031.3°C31.4°C31.3°C44.0%1011.9hPa0.0mm4.7km/hN13.0km/h556.7W/m²559W/m²
30.08.2026 16:1531.1°C31.3°C30.8°C43.7%1011.9hPa0.0mm4.7km/hNNE13.0km/h264.7W/m²555W/m²
30.08.2026 16:2030.5°C30.7°C30.4°C44.2%1011.8hPa0.0mm4.8km/hN14.4km/h414.8W/m²557W/m²
30.08.2026 16:2530.5°C30.5°C30.4°C44.5%1011.8hPa0.0mm4.9km/hNNE9.7km/h392.2W/m²557W/m²
30.08.2026 16:3030.5°C30.7°C30.4°C45.5%1011.8hPa0.0mm6.2km/hNNE17.6km/h552.3W/m²557W/m²
30.08.2026 16:3530.8°C31.1°C30.6°C44.9%1011.8hPa0.0mm6.5km/hNNE16.2km/h519.2W/m²533W/m²
30.08.2026 16:4031.0°C31.2°C30.7°C44.2%1011.8hPa0.0mm6.5km/hN17.6km/h495.0W/m²501W/m²
30.08.2026 16:4530.8°C30.8°C30.7°C44.4%1011.8hPa0.0mm6.6km/hNNE17.6km/h481.7W/m²487W/m²
30.08.2026 16:5030.8°C30.9°C30.8°C44.0%1011.8hPa0.0mm7.3km/hNNE14.4km/h461.8W/m²469W/m²
30.08.2026 16:5530.7°C30.9°C30.6°C43.9%1011.8hPa0.0mm6.5km/hNNE19.4km/h441.0W/m²450W/m²
30.08.2026 17:0030.7°C30.8°C30.6°C44.8%1011.8hPa0.0mm6.5km/hNE17.6km/h431.2W/m²434W/m²
30.08.2026 17:0530.8°C30.9°C30.7°C45.0%1011.8hPa0.0mm5.6km/hNNE16.2km/h418.5W/m²424W/m²
30.08.2026 17:1030.8°C30.8°C30.7°C44.9%1011.8hPa0.0mm5.0km/hNNE14.4km/h404.7W/m²411W/m²
30.08.2026 17:1530.7°C30.8°C30.6°C45.6%1011.8hPa0.0mm4.7km/hN14.4km/h375.7W/m²385W/m²
30.08.2026 17:2030.8°C30.8°C30.7°C45.2%1011.9hPa0.0mm4.7km/hNE14.4km/h353.3W/m²362W/m²
30.08.2026 17:2530.5°C30.7°C30.3°C45.4%1011.8hPa0.0mm3.4km/hNNE7.9km/h303.3W/m²336W/m²
30.08.2026 17:3030.4°C30.4°C30.3°C46.2%1011.8hPa0.0mm3.2km/hN6.5km/h298.2W/m²306W/m²
30.08.2026 17:3530.4°C30.5°C30.4°C45.8%1011.8hPa0.0mm3.2km/hNNE6.5km/h306.4W/m²313W/m²
30.08.2026 17:4030.3°C30.4°C30.2°C45.8%1011.8hPa0.0mm3.2km/hN14.4km/h216.3W/m²297W/m²
30.08.2026 17:4530.3°C30.3°C30.2°C46.1%1011.9hPa0.0mm3.2km/hN16.2km/h272.8W/m²285W/m²
30.08.2026 17:5030.1°C30.2°C30.1°C46.3%1011.8hPa0.0mm3.2km/hNNE9.7km/h205.5W/m²272W/m²
30.08.2026 17:5530.1°C30.1°C30.1°C46.2%1011.8hPa0.0mm3.2km/hNNE7.9km/h235.2W/m²260W/m²
30.08.2026 18:0030.1°C30.1°C30.1°C46.8%1011.8hPa0.0mm3.2km/hNNE6.5km/h245.0W/m²248W/m²
30.08.2026 18:0530.2°C30.2°C30.1°C46.1%1011.8hPa0.0mm3.2km/hNNE14.4km/h231.5W/m²239W/m²
30.08.2026 18:1030.1°C30.2°C30.0°C46.0%1011.8hPa0.0mm4.2km/hN13.0km/h208.0W/m²216W/m²
30.08.2026 18:1529.9°C30.0°C29.8°C46.5%1011.9hPa0.0mm4.7km/hN11.2km/h167.5W/m²193W/m²
30.08.2026 18:2029.7°C29.8°C29.7°C46.7%1011.9hPa0.0mm4.7km/hNNE7.9km/h171.5W/m²178W/m²
30.08.2026 18:2529.7°C29.7°C29.7°C48.2%1011.9hPa0.0mm3.4km/hN6.5km/h168.8W/m²174W/m²
30.08.2026 18:3029.7°C29.7°C29.7°C48.2%1011.9hPa0.0mm2.5km/hNNE6.5km/h101.7W/m²141W/m²
30.08.2026 18:3529.6°C29.7°C29.6°C47.9%1011.9hPa0.0mm3.2km/hNNE7.9km/h123.8W/m²135W/m²
30.08.2026 18:4029.6°C29.6°C29.5°C48.6%1011.9hPa0.0mm3.2km/hNE4.7km/h120.2W/m²127W/m²
30.08.2026 18:4529.4°C29.5°C29.4°C49.0%1011.9hPa0.0mm2.4km/hNNE4.7km/h102.6W/m²111W/m²
30.08.2026 18:5029.3°C29.4°C29.2°C49.0%1011.9hPa0.0mm1.9km/hNE6.5km/h82.3W/m²90W/m²
30.08.2026 18:5529.2°C29.3°C29.1°C49.4%1011.8hPa0.0mm1.6km/hNNE6.5km/h66.8W/m²74W/m²
30.08.2026 19:0028.9°C29.1°C28.7°C50.0%1011.8hPa0.0mm2.2km/hNNE7.9km/h43.0W/m²53W/m²
30.08.2026 19:0528.5°C28.7°C28.3°C50.8%1011.9hPa0.0mm3.2km/hN6.5km/h29.3W/m²30W/m²
30.08.2026 19:1028.1°C28.3°C28.0°C51.2%1011.8hPa0.0mm3.2km/hNNE9.7km/h26.2W/m²28W/m²
30.08.2026 19:1527.8°C27.9°C27.7°C52.0%1011.9hPa0.0mm3.2km/hNNE6.5km/h24.0W/m²25W/m²
30.08.2026 19:2027.6°C27.8°C27.5°C52.8%1012.0hPa0.0mm3.1km/hNNE4.7km/h20.3W/m²21W/m²
30.08.2026 19:2527.4°C27.5°C27.3°C53.9%1012.0hPa0.0mm1.4km/hNE4.7km/h18.3W/m²19W/m²
30.08.2026 19:3027.2°C27.3°C27.1°C55.4%1012.1hPa0.0mm0.5km/hESE3.2km/h15.7W/m²18W/m²
30.08.2026 19:3526.8°C27.0°C26.7°C56.2%1012.1hPa0.0mm1.4km/hSE3.2km/h12.7W/m²14W/m²
30.08.2026 19:4026.5°C26.7°C26.3°C57.0%1012.1hPa0.0mm1.4km/hSSE4.7km/h10.3W/m²11W/m²
30.08.2026 19:4526.3°C26.4°C26.2°C57.0%1012.1hPa0.0mm1.4km/hS4.7km/h7.3W/m²9W/m²
30.08.2026 19:5026.1°C26.2°C25.9°C57.6%1012.2hPa0.0mm1.4km/hS4.7km/h4.0W/m²5W/m²
30.08.2026 19:5525.8°C25.9°C25.7°C58.6%1012.3hPa0.0mm1.4km/hSSW3.2km/h0.0W/m²0W/m²
30.08.2026 20:0025.5°C25.7°C25.3°C59.2%1012.3hPa0.0mm1.4km/hS6.5km/h0.0W/m²0W/m²
30.08.2026 20:0525.0°C25.3°C24.8°C60.3%1012.5hPa0.0mm2.3km/hS6.5km/h0.0W/m²0W/m²
30.08.2026 20:1024.7°C24.8°C24.7°C60.8%1012.6hPa0.0mm3.2km/hS6.5km/h0.0W/m²0W/m²
30.08.2026 20:1524.6°C24.7°C24.6°C61.0%1012.7hPa0.0mm3.1km/hSE3.2km/h0.0W/m²0W/m²
30.08.2026 20:2024.5°C24.6°C24.4°C61.0%1012.8hPa0.0mm1.4km/hS9.7km/h0.0W/m²0W/m²
30.08.2026 20:2524.4°C24.4°C24.3°C60.7%1012.8hPa0.0mm3.7km/hSSW13.0km/h0.0W/m²0W/m²
30.08.2026 20:3024.6°C24.7°C24.4°C59.6%1013.0hPa0.0mm6.3km/hSSW13.0km/h0.0W/m²0W/m²
30.08.2026 20:3524.7°C24.7°C24.6°C59.7%1013.1hPa0.0mm6.0km/hSSW6.5km/h0.0W/m²0W/m²
30.08.2026 20:4024.5°C24.6°C24.4°C60.0%1013.2hPa0.0mm4.7km/hSSW9.7km/h0.0W/m²0W/m²
30.08.2026 20:4524.3°C24.4°C24.2°C61.0%1013.2hPa0.0mm4.7km/hSSW9.7km/h0.0W/m²0W/m²
30.08.2026 20:5024.2°C24.2°C24.1°C61.0%1013.3hPa0.0mm4.7km/hSSW7.9km/h0.0W/m²0W/m²
30.08.2026 20:5524.1°C24.1°C24.1°C61.0%1013.5hPa0.0mm4.7km/hSSW9.7km/h0.0W/m²0W/m²
30.08.2026 21:0024.0°C24.1°C24.0°C61.6%1013.5hPa0.0mm4.7km/hS7.9km/h0.0W/m²0W/m²
30.08.2026 21:0523.9°C24.0°C23.8°C62.0%1013.6hPa0.0mm3.7km/hS7.9km/h0.0W/m²0W/m²
30.08.2026 21:1023.6°C23.8°C23.5°C62.1%1013.6hPa0.0mm3.2km/hS7.9km/h0.0W/m²0W/m²
30.08.2026 21:1523.4°C23.5°C23.3°C63.0%1013.6hPa0.0mm4.2km/hSSW9.7km/h0.0W/m²0W/m²
30.08.2026 21:2023.3°C23.4°C23.2°C63.0%1013.7hPa0.0mm5.9km/hS11.2km/h0.0W/m²0W/m²
30.08.2026 21:2523.2°C23.2°C23.2°C63.0%1013.7hPa0.0mm6.4km/hS9.7km/h0.0W/m²0W/m²
30.08.2026 21:3023.1°C23.2°C23.1°C63.4%1013.6hPa0.0mm4.7km/hSSE9.7km/h0.0W/m²0W/m²
30.08.2026 21:3523.0°C23.1°C22.9°C63.9%1013.7hPa0.0mm4.7km/hSSW9.7km/h0.0W/m²0W/m²
30.08.2026 21:4022.8°C22.9°C22.8°C64.1%1013.7hPa0.0mm4.7km/hSSW9.7km/h0.0W/m²0W/m²
30.08.2026 21:4522.8°C22.8°C22.8°C64.8%1013.6hPa0.0mm4.7km/hSSW11.2km/h0.0W/m²0W/m²
30.08.2026 21:5022.8°C22.8°C22.8°C64.0%1013.7hPa0.0mm6.3km/hS13.0km/h0.0W/m²0W/m²
30.08.2026 21:5522.8°C22.8°C22.8°C64.0%1013.7hPa0.0mm4.9km/hSSE7.9km/h0.0W/m²0W/m²
30.08.2026 22:0022.7°C22.7°C22.6°C64.6%1013.7hPa0.0mm4.7km/hSSW11.2km/h0.0W/m²0W/m²
30.08.2026 22:0522.5°C22.6°C22.5°C65.0%1013.8hPa0.0mm5.9km/hSSW13.0km/h0.0W/m²0W/m²
30.08.2026 22:1022.4°C22.5°C22.4°C65.0%1013.8hPa0.0mm6.5km/hSSW11.2km/h0.0W/m²0W/m²
30.08.2026 22:1522.4°C22.4°C22.3°C65.0%1013.7hPa0.0mm6.9km/hSSW14.4km/h0.0W/m²0W/m²
30.08.2026 22:2022.3°C22.4°C22.3°C65.0%1013.8hPa0.0mm7.9km/hSSW13.0km/h0.0W/m²0W/m²
30.08.2026 22:2522.3°C22.3°C22.2°C65.9%1013.8hPa0.0mm7.8km/hS9.7km/h0.0W/m²0W/m²
30.08.2026 22:3022.2°C22.2°C22.1°C66.0%1013.8hPa0.0mm6.5km/hSSW9.7km/h0.0W/m²0W/m²
30.08.2026 22:3522.2°C22.2°C22.1°C66.0%1013.9hPa0.0mm6.4km/hS9.7km/h0.0W/m²0W/m²
30.08.2026 22:4022.0°C22.1°C21.9°C66.0%1014.0hPa0.0mm4.3km/hS9.7km/h0.0W/m²0W/m²
30.08.2026 22:4521.9°C21.9°C21.9°C66.6%1014.1hPa0.0mm3.2km/hS7.9km/h0.0W/m²0W/m²
30.08.2026 22:5021.8°C21.9°C21.8°C67.0%1014.1hPa0.0mm3.2km/hS6.5km/h0.0W/m²0W/m²
30.08.2026 22:5521.7°C21.8°C21.6°C67.0%1014.1hPa0.0mm3.2km/hS7.9km/h0.0W/m²0W/m²
30.08.2026 23:0021.6°C21.7°C21.6°C67.3%1014.1hPa0.0mm3.2km/hS9.7km/h0.0W/m²0W/m²
30.08.2026 23:0521.6°C21.6°C21.5°C67.0%1014.2hPa0.0mm4.2km/hSSW14.4km/h0.0W/m²0W/m²
30.08.2026 23:1021.6°C21.7°C21.6°C67.0%1014.2hPa0.0mm4.7km/hS11.2km/h0.0W/m²0W/m²
30.08.2026 23:1521.6°C21.6°C21.6°C67.0%1014.3hPa0.0mm4.7km/hSSW11.2km/h0.0W/m²0W/m²
30.08.2026 23:2021.5°C21.6°C21.4°C67.0%1014.4hPa0.0mm4.7km/hSSE7.9km/h0.0W/m²0W/m²
30.08.2026 23:2521.4°C21.4°C21.3°C67.5%1014.4hPa0.0mm3.7km/hS6.5km/h0.0W/m²0W/m²
30.08.2026 23:3021.3°C21.3°C21.3°C68.0%1014.4hPa0.0mm3.2km/hSSW7.9km/h0.0W/m²0W/m²
30.08.2026 23:3521.3°C21.3°C21.3°C68.0%1014.4hPa0.0mm3.2km/hS9.7km/h0.0W/m²0W/m²
30.08.2026 23:4021.2°C21.3°C21.2°C68.0%1014.5hPa0.0mm3.2km/hS9.7km/h0.0W/m²0W/m²
30.08.2026 23:4521.2°C21.2°C21.2°C68.0%1014.5hPa0.0mm4.5km/hS11.2km/h0.0W/m²0W/m²
30.08.2026 23:5021.3°C21.3°C21.2°C68.0%1014.5hPa0.0mm4.7km/hSSW7.9km/h0.0W/m²0W/m²
30.08.2026 23:5521.2°C21.3°C21.2°C68.0%1014.5hPa0.0mm4.3km/hS7.9km/h0.0W/m²0W/m²
31.08.2026 00:0021.1°C21.2°C21.1°C68.3%1014.5hPa0.0mm3.2km/hSSW7.9km/h0.0W/m²0W/m²
31.08.2026 00:0521.0°C21.1°C20.9°C69.0%1014.5hPa0.0mm3.2km/hSSW9.7km/h0.0W/m²0W/m²
31.08.2026 00:1020.9°C20.9°C20.8°C69.0%1014.5hPa0.0mm4.0km/hSSW11.2km/h0.0W/m²0W/m²
31.08.2026 00:1520.8°C20.9°C20.8°C69.0%1014.5hPa0.0mm4.7km/hSSW7.9km/h0.0W/m²0W/m²
31.08.2026 00:2020.8°C20.8°C20.8°C69.5%1014.6hPa0.0mm4.7km/hSSW9.7km/h0.0W/m²0W/m²
31.08.2026 00:2520.8°C20.8°C20.8°C70.0%1014.5hPa0.0mm3.7km/hS7.9km/h0.0W/m²0W/m²
31.08.2026 00:3020.7°C20.7°C20.7°C70.0%1014.5hPa0.0mm3.2km/hESE6.5km/h0.0W/m²0W/m²
31.08.2026 00:3520.6°C20.7°C20.6°C70.0%1014.5hPa0.0mm3.2km/hS4.7km/h0.0W/m²0W/m²
31.08.2026 00:4020.6°C20.6°C20.5°C70.0%1014.5hPa0.0mm2.8km/hS11.2km/h0.0W/m²0W/m²
31.08.2026 00:4520.6°C20.6°C20.5°C70.0%1014.5hPa0.0mm3.2km/hESE4.7km/h0.0W/m²0W/m²
31.08.2026 00:5020.4°C20.5°C20.3°C70.4%1014.4hPa0.0mm2.0km/hSE6.5km/h0.0W/m²0W/m²
31.08.2026 00:5520.3°C20.3°C20.3°C71.0%1014.5hPa0.0mm1.4km/hSSW6.5km/h0.0W/m²0W/m²
31.08.2026 01:0020.3°C20.3°C20.2°C71.0%1014.5hPa0.0mm1.4km/hSE4.7km/h0.0W/m²0W/m²
31.08.2026 01:0520.2°C20.3°C20.2°C71.0%1014.5hPa0.0mm1.4km/hSE4.7km/h0.0W/m²0W/m²
31.08.2026 01:1020.2°C20.2°C20.1°C71.0%1014.5hPa0.0mm1.4km/hSSE3.2km/h0.0W/m²0W/m²
31.08.2026 01:1520.1°C20.1°C20.0°C71.6%1014.5hPa0.0mm1.4km/hS6.5km/h0.0W/m²0W/m²
31.08.2026 01:2019.9°C20.0°C19.9°C72.0%1014.5hPa0.0mm2.0km/hSSW6.5km/h0.0W/m²0W/m²
31.08.2026 01:2520.0°C20.0°C19.9°C72.0%1014.5hPa0.0mm3.2km/hS6.5km/h0.0W/m²0W/m²
31.08.2026 01:3019.9°C20.0°C19.9°C72.0%1014.5hPa0.0mm2.7km/hS1.4km/h0.0W/m²0W/m²
31.08.2026 01:3519.9°C19.9°C19.8°C72.0%1014.5hPa0.0mm1.4km/hSSW9.7km/h0.0W/m²0W/m²
31.08.2026 01:4019.8°C19.8°C19.8°C72.0%1014.5hPa0.0mm2.6km/hS6.5km/h0.0W/m²0W/m²
31.08.2026 01:4519.8°C19.8°C19.7°C72.9%1014.5hPa0.0mm2.7km/hS3.2km/h0.0W/m²0W/m²
31.08.2026 01:5019.7°C19.7°C19.6°C73.0%1014.5hPa0.0mm1.4km/hS3.2km/h0.0W/m²0W/m²
31.08.2026 01:5519.6°C19.7°C19.6°C73.5%1014.5hPa0.0mm1.4km/hSW4.7km/h0.0W/m²0W/m²
31.08.2026 02:0019.6°C19.6°C19.5°C74.5%1014.5hPa0.0mm1.4km/hSSE3.2km/h0.0W/m²0W/m²
31.08.2026 02:0519.5°C19.6°C19.4°C75.4%1014.5hPa0.0mm1.3km/hS3.2km/h0.0W/m²0W/m²
31.08.2026 02:1019.4°C19.4°C19.4°C76.0%1014.5hPa0.0mm0.0km/hS3.2km/h0.0W/m²0W/m²
31.08.2026 02:1519.3°C19.4°C19.3°C75.8%1014.5hPa0.0mm0.0km/hS3.2km/h0.0W/m²0W/m²
31.08.2026 02:2019.3°C19.4°C19.3°C75.9%1014.5hPa0.0mm0.4km/hSSW1.4km/h0.0W/m²0W/m²
31.08.2026 02:2519.3°C19.4°C19.3°C76.3%1014.5hPa0.0mm1.4km/hSSW3.2km/h0.0W/m²0W/m²
31.08.2026 02:3019.2°C19.3°C19.1°C77.3%1014.5hPa0.0mm0.7km/hSSW1.4km/h0.0W/m²0W/m²
31.08.2026 02:3519.0°C19.2°C18.9°C78.0%1014.4hPa0.0mm0.0km/hSSW3.2km/h0.0W/m²0W/m²
31.08.2026 02:4018.8°C18.9°C18.7°C79.0%1014.3hPa0.0mm0.1km/hSSW3.2km/h0.0W/m²0W/m²
31.08.2026 02:4518.6°C18.7°C18.6°C79.0%1014.3hPa0.0mm0.5km/hSSW1.4km/h0.0W/m²0W/m²
31.08.2026 02:5018.5°C18.6°C18.4°C79.0%1014.3hPa0.0mm0.0km/hSSW3.2km/h0.0W/m²0W/m²
31.08.2026 02:5518.4°C18.4°C18.4°C78.4%1014.2hPa0.0mm0.2km/hSE4.7km/h0.0W/m²0W/m²
31.08.2026 03:0018.4°C18.5°C18.4°C77.4%1014.3hPa0.0mm1.4km/hESE4.7km/h0.0W/m²0W/m²
31.08.2026 03:0518.5°C18.6°C18.5°C77.0%1014.3hPa0.0mm1.4km/hSE3.2km/h0.0W/m²0W/m²
31.08.2026 03:1018.6°C18.6°C18.6°C77.0%1014.2hPa0.0mm1.4km/hSSE4.7km/h0.0W/m²0W/m²
31.08.2026 03:1518.6°C18.6°C18.6°C76.3%1014.2hPa0.0mm1.4km/hESE3.2km/h0.0W/m²0W/m²
31.08.2026 03:2018.6°C18.6°C18.6°C76.0%1014.2hPa0.0mm1.4km/hE3.2km/h0.0W/m²0W/m²
31.08.2026 03:2518.5°C18.5°C18.4°C76.0%1014.3hPa0.0mm0.6km/hE3.2km/h0.0W/m²0W/m²
31.08.2026 03:3018.4°C18.5°C18.4°C76.3%1014.3hPa0.0mm1.4km/hS3.2km/h0.0W/m²0W/m²
31.08.2026 03:3518.4°C18.4°C18.3°C77.0%1014.3hPa0.0mm1.4km/hESE3.2km/h0.0W/m²0W/m²
31.08.2026 03:4018.3°C18.4°C18.3°C77.0%1014.2hPa0.0mm0.2km/hSSW0.0km/h0.0W/m²0W/m²
31.08.2026 03:4518.3°C18.3°C18.3°C77.0%1014.2hPa0.0mm0.0km/hSSW0.0km/h0.0W/m²0W/m²
31.08.2026 03:5018.2°C18.3°C18.2°C77.2%1014.2hPa0.0mm0.0km/hSSW1.4km/h0.0W/m²0W/m²
31.08.2026 03:5518.3°C18.3°C18.2°C78.7%1014.2hPa0.0mm0.4km/hSSW1.4km/h0.0W/m²0W/m²
31.08.2026 04:0018.1°C18.2°C18.1°C79.9%1014.2hPa0.0mm1.4km/hWSW3.2km/h0.0W/m²0W/m²
31.08.2026 04:0517.9°C18.1°C17.8°C80.0%1014.3hPa0.0mm1.4km/hSSW3.2km/h0.0W/m²0W/m²
31.08.2026 04:1017.8°C17.8°C17.7°C80.9%1014.3hPa0.0mm1.0km/hSSW1.4km/h0.0W/m²0W/m²
31.08.2026 04:1517.7°C17.7°C17.7°C81.0%1014.3hPa0.0mm0.4km/hSSW4.7km/h0.0W/m²0W/m²
31.08.2026 04:2017.7°C17.7°C17.6°C81.0%1014.3hPa0.0mm1.4km/hSW3.2km/h0.0W/m²0W/m²
31.08.2026 04:2517.6°C17.7°C17.6°C81.1%1014.3hPa0.0mm1.4km/hW1.4km/h0.0W/m²0W/m²
31.08.2026 04:3017.6°C17.6°C17.5°C82.0%1014.4hPa0.0mm0.0km/hW1.4km/h0.0W/m²0W/m²
31.08.2026 04:3517.5°C17.6°C17.4°C82.0%1014.3hPa0.0mm0.0km/hW1.4km/h0.0W/m²0W/m²
31.08.2026 04:4017.4°C17.5°C17.4°C82.0%1014.3hPa0.0mm0.4km/hWNW3.2km/h0.0W/m²0W/m²
31.08.2026 04:4517.4°C17.4°C17.4°C82.7%1014.3hPa0.0mm1.4km/hW4.7km/h0.0W/m²0W/m²
31.08.2026 04:5017.3°C17.4°C17.2°C82.9%1014.3hPa0.0mm2.7km/hW4.7km/h0.0W/m²0W/m²
31.08.2026 04:5517.1°C17.2°C17.0°C83.0%1014.3hPa0.0mm2.7km/hWSW4.7km/h0.0W/m²0W/m²
31.08.2026 05:0016.9°C17.0°C16.9°C83.5%1014.4hPa0.0mm1.4km/hSW3.2km/h0.0W/m²0W/m²
31.08.2026 05:0516.9°C16.9°C16.8°C84.0%1014.4hPa0.0mm1.4km/hSW1.4km/h0.0W/m²0W/m²
31.08.2026 05:1016.8°C16.8°C16.8°C84.0%1014.3hPa0.0mm0.7km/hWSW1.4km/h0.0W/m²0W/m²
31.08.2026 05:1516.8°C16.9°C16.8°C84.0%1014.3hPa0.0mm0.1km/hWSW3.2km/h0.0W/m²0W/m²
31.08.2026 05:2016.8°C16.9°C16.8°C84.0%1014.2hPa0.0mm1.4km/hSSW3.2km/h0.0W/m²0W/m²
31.08.2026 05:2516.8°C16.8°C16.8°C84.0%1014.1hPa0.0mm1.4km/hSSW3.2km/h0.0W/m²0W/m²
31.08.2026 05:3016.8°C16.8°C16.8°C84.0%1014.0hPa0.0mm0.8km/hSSW1.4km/h0.0W/m²0W/m²
31.08.2026 05:3516.8°C16.8°C16.7°C84.1%1014.1hPa0.0mm0.0km/hSSW1.4km/h0.0W/m²0W/m²
31.08.2026 05:4016.8°C16.8°C16.8°C84.0%1014.1hPa0.0mm0.0km/hSSW0.0km/h0.0W/m²0W/m²
31.08.2026 05:4516.7°C16.8°C16.7°C83.7%1014.1hPa0.0mm0.0km/hSSW3.2km/h0.0W/m²0W/m²
31.08.2026 05:5016.7°C16.8°C16.7°C83.0%1014.1hPa0.0mm0.0km/hSSW0.0km/h0.0W/m²0W/m²
31.08.2026 05:5516.8°C16.8°C16.8°C83.0%1014.1hPa0.0mm0.0km/hSSW3.2km/h0.0W/m²0W/m²
31.08.2026 06:0016.8°C16.8°C16.8°C83.7%1014.2hPa0.0mm0.6km/hSSW1.4km/h0.0W/m²0W/m²
31.08.2026 06:0516.8°C16.8°C16.8°C84.0%1014.1hPa0.0mm0.4km/hSSW1.4km/h0.0W/m²0W/m²
31.08.2026 06:1016.8°C16.8°C16.8°C84.0%1014.1hPa0.0mm0.1km/hSSW6.5km/h0.0W/m²0W/m²
31.08.2026 06:1516.8°C16.8°C16.7°C84.0%1014.1hPa0.0mm1.4km/hW4.7km/h0.0W/m²0W/m²
31.08.2026 06:2016.6°C16.7°C16.6°C84.0%1014.1hPa0.0mm3.0km/hW4.7km/h0.0W/m²0W/m²
31.08.2026 06:2516.6°C16.6°C16.5°C84.4%1014.1hPa0.0mm2.0km/hW3.2km/h0.0W/m²0W/m²
31.08.2026 06:3016.5°C16.6°C16.5°C85.0%1014.1hPa0.0mm1.4km/hWSW3.2km/h0.0W/m²0W/m²
31.08.2026 06:3516.5°C16.5°C16.5°C85.0%1014.2hPa0.0mm1.4km/hW3.2km/h4.0W/m²5W/m²
31.08.2026 06:4016.5°C16.5°C16.4°C85.0%1014.2hPa0.0mm1.4km/hW3.2km/h6.3W/m²7W/m²
31.08.2026 06:4516.4°C16.5°C16.4°C85.0%1014.2hPa0.0mm1.4km/hW4.7km/h8.7W/m²9W/m²
31.08.2026 06:5016.5°C16.5°C16.4°C85.0%1014.3hPa0.0mm1.4km/hWSW3.2km/h10.7W/m²11W/m²
31.08.2026 06:5516.5°C16.5°C16.4°C85.0%1014.3hPa0.0mm1.4km/hWSW3.2km/h11.8W/m²12W/m²
31.08.2026 07:0016.5°C16.6°C16.5°C85.0%1014.4hPa0.0mm1.4km/hWSW4.7km/h14.3W/m²16W/m²
31.08.2026 07:0516.6°C16.6°C16.5°C85.0%1014.3hPa0.0mm1.4km/hSW3.2km/h16.3W/m²18W/m²
31.08.2026 07:1016.6°C16.6°C16.6°C85.0%1014.3hPa0.0mm1.4km/hWSW4.7km/h18.2W/m²19W/m²
31.08.2026 07:1516.7°C16.7°C16.6°C85.0%1014.4hPa0.0mm2.2km/hW4.7km/h19.4W/m²21W/m²
31.08.2026 07:2016.8°C16.8°C16.7°C85.0%1014.4hPa0.0mm3.2km/hW4.7km/h23.7W/m²25W/m²
31.08.2026 07:2516.9°C16.9°C16.8°C84.8%1014.5hPa0.0mm2.7km/hWSW4.7km/h25.5W/m²26W/m²
31.08.2026 07:3017.0°C17.1°C16.9°C84.0%1014.6hPa0.0mm1.4km/hW3.2km/h27.3W/m²28W/m²
31.08.2026 07:3517.1°C17.2°C17.1°C84.0%1014.6hPa0.0mm1.4km/hW4.7km/h29.2W/m²30W/m²
31.08.2026 07:4017.1°C17.2°C17.1°C84.0%1014.6hPa0.0mm1.4km/hW4.7km/h31.0W/m²32W/m²
31.08.2026 07:4517.1°C17.2°C17.1°C84.0%1014.6hPa0.0mm1.4km/hWSW3.2km/h32.3W/m²33W/m²
31.08.2026 07:5017.2°C17.3°C17.2°C84.0%1014.6hPa0.0mm1.4km/hWSW3.2km/h33.0W/m²33W/m²
31.08.2026 07:5517.5°C17.6°C17.3°C83.9%1014.6hPa0.0mm1.4km/hSW3.2km/h35.0W/m²35W/m²
31.08.2026 08:0017.7°C17.8°C17.6°C83.4%1014.6hPa0.0mm1.4km/hSSW3.2km/h36.7W/m²37W/m²
31.08.2026 08:0517.9°C18.0°C17.8°C82.5%1014.6hPa0.0mm1.4km/hW3.2km/h37.7W/m²39W/m²
31.08.2026 08:1018.1°C18.2°C18.1°C82.0%1014.6hPa0.0mm1.4km/hW3.2km/h39.2W/m²40W/m²
31.08.2026 08:1518.3°C18.4°C18.2°C81.9%1014.6hPa0.0mm1.4km/hW3.2km/h40.0W/m²40W/m²
31.08.2026 08:2018.5°C18.6°C18.4°C81.1%1014.6hPa0.0mm1.4km/hW4.7km/h41.7W/m²42W/m²
31.08.2026 08:2518.6°C18.7°C18.5°C81.0%1014.6hPa0.0mm1.4km/hW4.7km/h43.7W/m²44W/m²
31.08.2026 08:3018.8°C18.8°C18.7°C80.7%1014.6hPa0.0mm1.4km/hWSW3.2km/h160.8W/m²257W/m²
31.08.2026 08:3518.9°C19.1°C18.8°C80.0%1014.6hPa0.0mm1.4km/hS3.2km/h265.5W/m²271W/m²
31.08.2026 08:4019.2°C19.4°C19.1°C78.7%1014.6hPa0.0mm1.4km/hSSE3.2km/h280.0W/m²287W/m²
31.08.2026 08:4519.7°C19.9°C19.5°C76.9%1014.6hPa0.0mm0.2km/hSSE1.4km/h294.5W/m²301W/m²
31.08.2026 08:5020.1°C20.3°C19.9°C75.4%1014.6hPa0.0mm0.0km/hSSE3.2km/h308.8W/m²315W/m²
31.08.2026 08:5520.6°C20.9°C20.4°C74.1%1014.6hPa0.0mm0.0km/hE3.2km/h322.5W/m²329W/m²
31.08.2026 09:0021.1°C21.3°C20.9°C73.1%1014.6hPa0.0mm0.0km/hE3.2km/h334.8W/m²341W/m²
31.08.2026 09:0521.6°C21.8°C21.4°C71.2%1014.5hPa0.0mm0.0km/hSE3.2km/h349.5W/m²355W/m²
31.08.2026 09:1022.0°C22.1°C21.8°C68.9%1014.5hPa0.0mm1.0km/hNE4.7km/h363.5W/m²369W/m²
31.08.2026 09:1522.2°C22.3°C22.1°C68.0%1014.5hPa0.0mm1.1km/hNE3.2km/h376.8W/m²381W/m²
31.08.2026 09:2022.4°C22.4°C22.3°C68.0%1014.5hPa0.0mm1.4km/hESE3.2km/h387.7W/m²390W/m²